SCP
0 0 0 0 0 0 0 0 0 0 0 0 0 0 0 0 0 0 0 0 0 0 0 0 0 0 0 0 0 0 0 0 0 0 0 0 0 0 0 0 0 0 0
0 0 0 0 0 0 0 0 0 0 0 0 0 0 0 0 0 0 0 0 0 0 0 0 0 0 0 0 0 0 0 0 0 0 0 0 0 0 0 0 0 0 0
0 0 0 0 0 0 0 0 0 0 0 0 0 0 0 0 0 0 0 0 0 0 0 0 0 0 0 0 0 0 0 0 0 0 0 0 0 0 0 0 0 0 0
0 0 0 0 0 0 0 0 0 0 0 0 0 0 0 0 0 0 0 0 0 0 0 0 0 0 0 0 0 0 0 0 0 0 0 0 0 0 0 0 0 0 0
0 0 0 0 0 0 0 0 0 0 0 0 0 0 0 0 0 0 0 0 0 0 0 0 0 0 0 0 0 0 0 0 0 0 0 0 0 0 0 0 0 0 0
0 0 0 0 0 0 0 0 0 0 0 0 0 0 0 0 0 0 0 0 0 0 0 0 0 0 0 0 0 0 0 0 0 0 0 0 0 0 0 0 0 0 0
0 0 0 0 0 0 0 0 0 0 0 0 0 0 0 0 0 0 0 0 0 0 0 0 0 0 0 0 0 0 0 0 0 0 0 0 0 0 0 0 0 0 0
0 0 0 0 0 0 0 0 0 0 0 0 0 0 0 0 0 0 0 0 0 0 0 0 0 0 0 0 0 0 0 0 0 0 0 0 0 0 0 0 0 0 0
0 0 0 0 0 0 0 0 0 0 0 0 0 0 0 0 0 0 0 0 0 0 0 0 0 0 0 0 0 0 0 0 0 0 0 0 0 0 0 0 0 0 0
0 0 0 0 0 0 0 0 0 0 0 0 0 0 0 0 0 0 0 0 0 0 0 0 0 0 0 0 0 0 0 0 0 0 0 0 0 0 0 0 0 0 0
0 0 0 0 0 0 0 0 0 0 0 0 0 0 0 0 0 0 0 0 0 0 0 0 0 0 0 0 0 0 0 0 0 0 0 0 0 0 0 0 0 0 0
0 0 0 0 0 0 0 0 0 0 0 0 0 0 0 0 0 0 0 0 0 0 0 0 0 0 0 0 0 0 0 0 0 0 0 0 0 0 0 0 0 0 0
0 0 0 0 0 0 0 0 0 0 0 0 0 0 0 0 0 0 0 0 0 0 0 0 0 0 0 0 0 0 0 0 0 0 0 0 0 0 0 0 0 0 0
0 0 0 0 0 0 0 0 0 0 0 0 0 0 0 0 0 0 0 0 0 0 0 0 0 0 0 0 0 0 0 0 0 0 0 0 0 0 0 0 0 0 0
0 0 0 0 0 0 0 0 0 0 0 0 0 0 0 0 0 0 0 0 0 0 0 0 0 0 0 0 0 0 0 0 0 0 0 0 0 0 0 0 0 0 0
0 0 0 0 0 0 0 0 0 0 0 0 0 0 0 0 0 0 0 0 0 0 0 0 0 0 0 0 0 0 0 0 0 0 0 0 0 0 0 0 0 0 0
0 0 0 0 0 0 0 0 0 0 0 0 0 0 0 0 0 0 0 0 0 0 0 0 0 0 0 0 0 0 0 0 0 0 0 0 0 0 0 0 0 0 0
0 0 0 0 0 0 0 0 0 0 0 0 0 0 0 0 0 0 0 0 0 0 0 0 0 0 0 0 0 0 0 0 0 0 0 0 0 0 0 0 0 0 0
0 0 0 0 0 0 0 0 0 0 0 0 0 0 0 0 0 0 0 0 0 0 0 0 0 0 0 0 0 0 0 0 0 0 0 0 0 0 0 0 0 0 0
0 0 0 0 0 0 0 0 0 0 0 0 0 0 0 0 0 0 0 0 0 0 0 0 0 0 0 0 0 0 0 0 0 0 0 0 0 0 0 0 0 0 0
0 0 0 0 0 0 0 0 0 0 0 0 0 0 0 0 0 0 0 0 0 0 0 0 0 0 0 0 0 0 0 0 0 0 0 0 0 0 0 0 0 0 0
0 0 0 0 0 0 0 0 0 0 0 0 0 0 0 0 0 0 0 0 0 0 0 0 0 0 0 0 0 0 0 0 0 0 0 0 0 0 0 0 0 0 0
0 0 0 0 0 0 0 0 0 0 0 0 0 0 0 0 0 0 0 0 0 0 0 0 0 0 0 0 0 0 0 0 0 0 0 0 0 0 0 0 0 0 0
0 0 0 0 0 0 0 0 0 0 0 0 0 0 0 0 0 0 0 0 0 -0 0 0 0 0 0 0 0 0 0 0 0 0 0 0 0 0 0 0 0 0 0
0 0 0 0 0 0 0 0 0 0 0 0 0 0 0 0 0 0 0 0 -0 -0 -0 0 0 0 0 0 0 0 0 0 0 0 0 0 0 0 0 0 0 0 0
0 0 0 0 0 0 0 0 0 0 0 0 0 0 0 0 0 0 0 -0 -0 -0 -0 -0 0 0 0 0 0 0 0 0 0 0 0 0 0 0 0 0 0 0 0
Wind_Speed
7 7 6 6 6 5 6 5 5 5 5 5 4 3 3 2 3 4 4 8 7 6 6 6 6 5 5 5 4 4 4 5 5 5 5 5 5 5 6 6 6 5 5
7 7 6 6 6 5 5 5 5 4 3 3 3 3 3 2 3 3 4 5 8 7 7 7 7 6 6 6 5 5 5 6 6 6 6 6 7 7 7 7 7 7 7
7 6 6 5 5 5 6 4 4 3 3 2 2 3 2 3 3 3 4 4 5 7 8 8 7 7 6 6 5 5 5 5 6 7 7 7 7 7 7 8 8 8 8
8 6 5 5 5 5 4 4 4 3 3 2 2 2 2 2 2 2 3 3 4 4 5 7 6 6 6 5 6 6 6 5 5 6 7 7 7 7 8 8 8 9 9
8 6 5 5 5 4 4 4 4 4 4 3 3 2 2 2 3 3 3 3 3 4 4 5 6 5 4 5 6 6 6 6 5 5 6 6 7 7 8 8 8 8 9
8 6 5 6 5 4 4 4 4 4 3 3 3 2 2 3 3 3 3 3 3 4 4 4 4 4 5 4 5 6 7 7 6 5 5 5 6 7 7 8 8 8 8
7 6 5 5 5 5 5 5 4 5 3 3 2 1 2 4 4 3 3 3 3 3 3 3 3 3 3 5 5 5 6 6 6 6 6 6 6 7 7 8 8 8 8
7 6 6 6 5 5 5 5 4 3 3 4 4 3 1 2 3 4 3 3 3 2 3 2 2 2 2 2 1 2 2 4 5 5 6 6 6 7 7 8 8 8 8
7 6 6 5 5 5 5 5 5 5 4 4 4 4 3 4 1 2 3 3 3 3 3 2 2 2 2 2 1 0 0 2 4 5 6 6 6 6 7 6 6 7 7
6 6 6 6 5 5 5 5 5 4 5 5 4 4 3 3 3 1 2 2 3 3 3 2 3 2 2 2 2 2 1 1 3 5 6 6 6 6 5 6 6 6 6
6 6 6 6 5 5 5 6 6 5 4 5 4 3 3 2 3 3 2 2 2 2 2 3 2 2 2 2 2 2 1 1 3 4 4 4 4 4 5 5 5 6 7
4 5 5 5 5 4 5 5 5 6 5 5 4 3 3 3 4 3 4 3 3 2 2 2 2 2 2 2 2 2 1 1 2 3 3 3 3 4 5 6 6 7 7
3 5 4 5 5 4 5 5 5 5 6 6 5 4 3 4 3 3 3 3 2 1 2 1 2 2 2 2 2 2 2 2 2 2 2 3 3 4 4 5 6 7 7
3 4 4 4 4 4 4 4 4 4 4 5 5 5 3 3 3 3 3 3 2 2 2 3 1 2 2 3 3 2 1 2 2 2 2 3 3 3 4 4 5 5 6
2 3 4 4 4 4 4 4 3 4 4 4 4 4 3 3 2 2 2 3 4 4 4 3 2 2 2 3 3 2 1 2 1 1 1 2 2 2 3 4 4 4 5
2 3 3 4 4 4 4 4 3 4 4 4 3 4 4 3 3 3 3 2 2 3 3 2 2 2 3 2 3 2 1 2 1 0 0 1 1 2 2 2 3 4 5
2 3 3 3 3 4 4 4 4 5 5 5 4 5 5 4 3 3 3 3 3 3 3 1 1 2 2 2 2 1 1 1 1 2 1 0 0 1 1 2 3 4 4
1 2 3 3 3 4 4 5 5 5 6 6 6 5 5 3 4 3 3 3 3 3 3 3 1 1 2 3 2 2 1 1 1 2 2 1 1 1 1 1 2 3 4
1 2 3 3 3 4 4 4 4 5 5 5 5 6 5 5 4 3 4 4 3 3 2 3 2 1 1 2 2 1 1 0 1 1 1 1 1 2 2 1 1 2 3
1 1 2 2 2 3 3 3 3 3 3 3 4 4 5 6 6 5 4 4 3 3 3 3 2 2 1 1 2 1 1 1 1 1 1 1 1 2 2 1 0 1 2
2 1 1 1 2 2 2 3 3 3 3 3 3 3 3 4 5 5 4 4 4 3 3 3 3 2 2 2 2 2 2 1 1 1 0 1 1 1 1 1 1 1 2
2 2 2 2 2 2 4 5 4 3 4 4 4 4 4 4 5 6 6 5 5 5 5 4 3 4 3 3 3 2 2 1 1 1 0 2 1 1 1 1 1 2 2
2 2 2 1 2 2 4 5 6 4 4 4 5 4 4 4 5 5 5 5 4 5 6 5 4 4 4 4 4 3 3 2 2 1 1 1 1 1 1 1 2 2 2
2 2 2 1 1 2 3 4 4 3 3 4 5 5 5 5 5 6 5 3 2 1 2 3 4 3 3 3 4 4 4 2 0 0 1 1 1 1 1 1 2 2 2
3 2 2 2 2 2 3 3 3 2 2 3 3 4 5 5 8 9 6 5 3 1 3 5 6 5 6 6 5 4 3 2 1 1 1 1 0 1 1 1 1 2 2
3 3 2 2 2 2 3 3 3 2 2 2 2 3 5 6 9 9 6 6 5 4 4 5 4 4 3 3 4 4 4 3 2 1 1 1 0 1 1 2 1 1 1
Wind_Direction
158 158 163 164 169 166 164 177 195 191 182 184 197 180 158 158 136 140 149 165 169 182 196 206 213 218 221 226 233 244 248 254 261 266 271 275 280 284 288 294 300 307 311
159 160 163 163 169 165 168 179 191 179 180 179 183 167 165 163 159 153 157 174 182 189 203 214 221 227 233 238 243 249 254 256 258 261 264 270 274 277 279 281 284 287 290
158 158 159 162 166 163 167 176 181 165 174 168 176 184 176 177 173 173 171 170 183 200 207 215 222 229 237 242 249 252 254 256 256 257 259 264 268 272 276 279 280 280 281
158 155 157 165 166 162 165 169 169 165 170 167 182 192 180 176 188 191 179 174 176 181 201 210 217 224 231 242 250 255 259 260 256 255 257 261 265 270 277 282 281 280 279
156 154 160 166 165 163 166 173 170 167 172 179 186 188 189 189 199 194 197 196 181 166 166 192 203 211 222 241 255 261 266 269 260 258 264 266 269 273 277 283 288 288 287
159 156 160 169 167 164 171 171 170 173 175 174 177 188 204 209 202 198 201 195 183 176 171 169 183 204 211 228 251 263 268 271 267 267 274 279 281 282 283 286 289 293 294
163 162 164 171 171 173 177 174 172 179 184 165 146 209 246 225 210 205 197 188 189 180 168 171 173 179 190 209 238 262 273 277 273 273 278 284 288 289 290 291 290 292 295
168 170 169 174 173 174 176 180 173 175 186 170 162 167 221 253 235 210 186 186 187 165 163 162 158 166 161 156 178 244 286 287 288 287 283 283 287 292 294 293 294 300 303
169 170 171 170 173 175 182 185 180 181 187 192 185 174 178 207 210 221 199 191 180 168 168 162 158 151 135 127 136 116 325 303 291 292 292 292 294 296 297 303 306 314 321
169 172 172 173 177 179 184 192 189 189 185 198 205 209 198 168 166 202 237 203 184 182 179 166 161 160 143 123 110 87 64 324 296 294 296 299 301 304 309 315 323 335 339
169 173 176 176 183 187 190 194 192 195 196 201 201 196 211 217 199 179 211 211 207 200 180 173 166 159 146 135 124 92 66 325 303 305 307 312 321 328 334 342 347 349 345
166 173 176 180 187 190 195 199 197 197 203 208 210 200 191 192 195 190 205 203 206 210 189 171 162 161 153 140 121 102 83 37 344 326 323 339 1 2 356 353 353 348 345
176 184 182 186 191 193 194 194 197 202 203 204 208 210 209 213 199 185 193 205 207 205 189 193 173 156 147 133 127 113 116 88 34 2 1 13 15 10 2 355 356 355 359
180 186 187 187 189 190 195 195 199 206 205 204 204 200 206 218 206 197 196 192 210 217 205 206 171 158 146 132 124 115 126 105 70 40 20 15 17 22 17 11 6 4 7
178 180 186 188 184 186 195 192 200 203 200 207 204 200 203 211 207 203 204 199 199 217 221 197 171 160 138 119 127 124 126 123 93 84 42 24 27 27 24 17 6 6 14
184 184 184 182 182 185 191 190 196 199 197 209 206 198 205 201 197 193 194 198 198 196 216 186 167 159 140 132 139 131 144 142 137 138 94 46 21 12 10 9 10 11 10
199 195 194 191 190 191 195 196 205 202 205 214 210 200 206 198 191 193 188 185 188 181 209 202 117 127 136 152 139 127 130 143 183 209 210 250 8 343 353 12 14 12 11
212 206 205 200 205 207 204 205 213 211 209 214 212 205 208 196 197 194 185 188 193 183 182 195 176 163 166 166 156 160 180 167 185 210 214 221 237 275 311 10 12 8 5
258 233 216 209 211 215 214 211 216 217 213 212 205 200 199 187 198 200 194 192 188 181 173 175 177 159 148 148 144 163 182 194 241 207 215 220 230 238 246 282 343 350 356
314 273 246 227 217 218 219 215 214 215 209 210 204 197 195 191 194 190 194 195 181 173 169 167 166 163 156 152 144 166 212 235 254 217 235 242 245 251 236 242 272 342 343
316 290 270 254 230 222 216 207 205 207 202 201 197 192 187 177 181 183 188 187 178 176 173 173 177 168 173 164 186 175 190 216 247 166 287 271 235 242 252 240 223 318 320
307 300 282 260 251 243 211 217 214 207 202 199 195 184 174 174 174 174 179 184 185 187 185 181 186 189 195 188 169 159 149 142 258 246 120 270 207 219 227 199 236 276 292
317 304 290 269 261 249 226 221 219 210 200 200 191 184 186 180 175 170 170 169 187 199 192 179 183 192 182 178 162 161 168 178 210 204 122 261 240 235 229 206 226 264 271
315 305 306 295 280 268 241 219 209 200 194 200 193 185 181 180 181 169 161 157 160 171 177 164 166 170 155 148 155 162 160 139 96 282 134 215 269 263 265 252 235 241 257
318 312 304 286 275 272 250 227 211 190 190 196 186 178 176 178 181 173 161 159 161 161 133 132 128 126 126 132 136 123 129 132 184 236 136 153 268 316 306 280 247 242 261
308 315 312 299 276 265 244 224 207 180 180 180 171 173 182 183 180 175 170 166 173 174 146 129 124 116 117 132 140 144 154 157 160 206 185 126 105 43 323 312 310 310 300